Location: Dennehotso
(36.8461°N, 109.8435°W)
Time: 23:08:10
(UTC+00:00)

Envisat - Visible Passes

Search period start: 05 March 2021 00:00
Search period end: 15 March 2021 00:00
Orbit: 764 x 766 km, 98.1° (Epoch: 05 March)

Date Brightness Start Highest point End Pass type
(mag) Time Alt. Az. Time Alt. Az. Time Alt. Az.
05 Mar 6.7 01:41:12 10° WSW 01:43:05 12° W 01:44:58 10° WNW visible
05 Mar 5.1 12:10:22 10° NE 12:14:41 28° E 12:18:59 10° SSE visible
06 Mar 6.2 11:35:53 10° ENE 11:37:33 11° E 11:39:12 10° ESE visible
06 Mar 3.0 13:11:57 10° N 13:17:00 70° WNW 13:22:02 10° SSW visible
07 Mar 4.0 12:35:15 10° NNE 12:40:11 50° E 12:45:06 10° S visible
08 Mar 5.6 11:59:19 10° NE 12:03:11 22° E 12:07:01 10° SE visible
09 Mar 3.0 13:00:30 10° NNE 13:05:36 89° WNW 13:10:41 10° SSW visible
10 Mar 4.5 12:23:59 10° NNE 12:28:44 39° E 12:33:26 10° SSE visible
11 Mar 5.9 11:48:27 10° NE 11:51:40 17° E 11:54:51 10° SE visible
12 Mar 3.3 12:49:05 10° NNE 12:54:10 72° ESE 12:59:14 10° S visible
13 Mar 5.0 12:12:47 10° NE 12:17:14 30° E 12:21:40 10° SSE visible
14 Mar 6.1 11:37:55 10° ENE 11:40:07 13° E 11:42:19 10° ESE visible
